Location: Unspecified
(35.6895°N, 139.6917°E)
Time: 13:46:12
(UTC+00:00)

ASTRO H - Visible Passes

Search period start: 06 October 2022 00:00
Search period end: 16 October 2022 00:00
Orbit: 559 x 576 km, 31.0° (Epoch: 05 October)

Date Brightness Start Highest point End Pass type
(mag) Time Alt. Az. Time Alt. Az. Time Alt. Az.
08 Oct ? 20:02:22 10° S 20:04:11 12° SSE 20:06:00 10° SE visible
09 Oct ? 20:00:28 10° SSW 20:03:17 17° SSE 20:06:06 10° ESE visible
10 Oct ? 19:59:03 10° SSW 20:02:25 22° SSE 20:05:46 10° ESE visible
11 Oct ? 19:57:52 10° SW 20:01:34 28° SSE 20:05:15 10° ESE visible
12 Oct ? 18:20:34 13° SE 18:20:34 13° SE 18:21:53 10° ESE visible
12 Oct ? 19:56:49 10° SW 20:00:44 34° SSE 20:04:37 10° ESE visible
13 Oct ? 18:20:04 16° SE 18:20:04 16° SE 18:21:44 10° ESE visible
13 Oct ? 19:56:02 11° WSW 19:59:54 39° S 20:03:55 10° ESE visible
14 Oct ? 18:19:31 19° SE 18:19:31 19° SE 18:21:17 10° ESE visible
14 Oct ? 19:55:28 13° WSW 19:59:06 43° S 20:03:11 10° ESE visible
15 Oct ? 18:18:54 21° ESE 18:18:54 21° ESE 18:20:42 10° ESE visible
15 Oct ? 19:54:52 14° WSW 19:58:17 45° S 20:02:24 10° ESE visible
